Palmer, AK

1:38 AM AKST on January 24, 2017 (GMT -0900)
Palmer Municipal

Weather History for PAAQ - October, 2012

Change the Weather History Date:

Tuesday, October 16, 2012

  Actual Average Record
Temperature  
Mean Temperature 28 °F -  
Max Temperature 32 °F 42 °F 56 °F (1972)
Min Temperature 26 °F 26 °F 4 °F (1965)
Degree Days  
Heating Degree Days 37    
Moisture  
Dew Point 23 °F    
Average Humidity 77    
Maximum Humidity 92    
Minimum Humidity 66    
Precipitation  
Precipitation 0.00 in - - ()
Sea Level Pressure  
Sea Level Pressure 29.26 in    
Wind  
Wind Speed 4 mph (South)    
Max Wind Speed 10 mph    
Max Gust Speed -    
Visibility 9 miles    
Events Snow    
Averages and records for this station are not official NWS values.
T = Trace of Precipitation, MM = Missing Value Source: NWS Daily Summary

Daily Weather History Graph

Daily Weather History Graph

Search for Another Location

Airport or City:

Trip Planner

Search our weather history database for the weather conditions in past years. The results will help you decide how hot, cold, wet, or windy it might be!

Date:

Astronomy

Oct. 16, 2012 Rise Set
Actual Time 8:44 AM AKDT 6:38 PM AKDT
Civil Twilight 7:59 AM AKDT 7:22 PM AKDT
Nautical Twilight 7:08 AM AKDT 8:13 PM AKDT
Astronomical Twilight 6:17 AM AKDT 9:04 PM AKDT
Moon 11:03 AM AKDT (10/16) 6:41 PM AKDT (10/16)
Length of Visible Light 11h 23m
Length of Day
9h 54m
Waxing Crescent, 3% of the Moon is Illuminated
Oct 16
Waxing Crescent
Oct 21
First Quarter
Oct 29
Full
Nov 6
Last Quarter
Nov 13
New

Hourly Weather History & Observations

Time (AKDT) Temp. Windchill Dew Point Humidity Pressure Visibility Wind Dir Wind Speed Gust Speed Precip Events Conditions
12:53 AM 30.9 °F 25.2 °F 28.0 °F 89% 29.08 in 10.0 mi SW 5.8 mph - N/A   Overcast
1:35 AM 30.2 °F 24.3 °F 26.6 °F 86% 29.07 in 10.0 mi SW 5.8 mph - N/A   Overcast
1:53 AM 30.9 °F 25.2 °F 25.0 °F 79% 29.09 in 10.0 mi SW 5.8 mph - N/A   Overcast
2:53 AM 30.0 °F 25.2 °F 23.0 °F 75% 29.10 in 10.0 mi South 4.6 mph - N/A   Overcast
3:30 AM 30.2 °F 24.3 °F 24.8 °F 80% 29.10 in 9.0 mi South 5.8 mph - N/A   Overcast
3:38 AM 30.2 °F 26.7 °F 23.0 °F 75% 29.10 in 10.0 mi SSW 3.5 mph - N/A   Overcast
3:53 AM 28.9 °F 22.8 °F 21.9 °F 75% 29.12 in 10.0 mi SSW 5.8 mph - N/A   Overcast
4:02 AM 28.4 °F 23.3 °F 21.2 °F 74% 29.11 in 10.0 mi SSW 4.6 mph - N/A   Overcast
4:25 AM 30.2 °F 25.4 °F 21.2 °F 69% 29.12 in 10.0 mi SSW 4.6 mph - N/A   Overcast
4:53 AM 30.0 °F 25.2 °F 19.9 °F 66% 29.13 in 10.0 mi WSW 4.6 mph - N/A   Overcast
5:53 AM 28.9 °F 23.9 °F 19.9 °F 69% 29.15 in 10.0 mi SW 4.6 mph - N/A   Overcast
6:53 AM 28.0 °F 22.8 °F 19.9 °F 72% 29.17 in 10.0 mi WSW 4.6 mph - N/A   Overcast
7:53 AM 28.0 °F 24.2 °F 21.0 °F 75% 29.18 in 10.0 mi West 3.5 mph - N/A   Overcast
8:53 AM 27.0 °F - 19.9 °F 75% 29.21 in 10.0 mi Calm Calm - N/A   Overcast
9:36 AM 26.6 °F - 21.2 °F 80% 29.20 in 10.0 mi Calm Calm - N/A   Mostly Cloudy
9:53 AM 27.0 °F - 23.0 °F 85% 29.22 in 10.0 mi Calm Calm - N/A   Mostly Cloudy
10:53 AM 28.0 °F - 21.9 °F 78% 29.24 in 10.0 mi Calm Calm - N/A   Overcast
11:53 AM 30.0 °F - 21.9 °F 72% 29.26 in 10.0 mi Calm Calm - N/A   Overcast
12:14 PM 30.2 °F 26.7 °F 21.2 °F 69% 29.25 in 10.0 mi SSW 3.5 mph - N/A   Overcast
12:53 PM 30.0 °F 26.5 °F 21.9 °F 72% 29.27 in 10.0 mi SW 3.5 mph - N/A   Overcast
1:53 PM 30.9 °F - 21.9 °F 69% 29.29 in 10.0 mi Calm Calm - N/A   Overcast
2:53 PM 30.9 °F 26.2 °F 21.9 °F 69% 29.30 in 10.0 mi South 4.6 mph - N/A   Overcast
3:53 PM 30.9 °F - 21.0 °F 67% 29.31 in 10.0 mi Calm Calm - N/A   Overcast
4:53 PM 30.9 °F - 21.0 °F 67% 29.32 in 10.0 mi Calm Calm - N/A   Overcast
5:53 PM 30.9 °F 26.2 °F 23.0 °F 72% 29.36 in 10.0 mi SSE 4.6 mph - N/A   Overcast
6:03 PM 30.2 °F 25.4 °F 23.0 °F 75% 29.35 in 10.0 mi SE 4.6 mph - N/A   Overcast
6:53 PM 30.0 °F 23.2 °F 25.0 °F 82% 29.39 in 4.0 mi SE 6.9 mph - 0.00 in Snow Light Snow
7:10 PM 30.2 °F 25.4 °F 26.6 °F 86% 29.38 in 1.8 mi ESE 4.6 mph - 0.00 in Snow Light Snow
7:19 PM 30.2 °F 23.4 °F 26.6 °F 86% 29.38 in 3.0 mi SE 6.9 mph - 0.00 in Snow Light Snow
7:41 PM 30.2 °F 24.3 °F 26.6 °F 86% 29.39 in 8.0 mi ESE 5.8 mph - 0.00 in   Overcast
7:53 PM 30.0 °F 22.4 °F 26.1 °F 85% 29.41 in 9.0 mi SE 8.1 mph - 0.00 in   Overcast
8:53 PM 30.0 °F 21.1 °F 26.1 °F 85% 29.42 in 10.0 mi North 10.4 mph - N/A   Mostly Cloudy
9:53 PM 30.0 °F - 25.0 °F 82% 29.47 in 10.0 mi Calm Calm - N/A   Mostly Cloudy
10:53 PM 28.9 °F - 26.1 °F 89% 29.50 in 10.0 mi Calm Calm - N/A   Overcast
11:53 PM 27.0 °F 23.0 °F 25.0 °F 92% 29.54 in 10.0 mi SSE 3.5 mph - N/A   Mostly Cloudy